DIAMOND GREEN (42785 NORAD) Tracking and Keplerian Element Data

This shows tracking and keplerian element data for the satellite.

Feedback or suggestion? Click here.




ElementValue
Catalog42785
NameDIAMOND GREEN
Epoch Orbit6943
Epoch Day266.39292617
Epoch Year2018
RAAN324.4315
Inclination97.3915
Eccentricity0.0014
Argument of Perigee93.1826
Mean Anonmoly267.1012
Mean Motion15.21652486
Decay Rate1.247E-05
L11 42785U 17036W 18266.39292617 .00001247 00000-0 58103-4 0 9990
L22 42785 97.3915 324.4315 0014000 93.1826 267.1012 15.21652486 69439

Live tracking and technical data element details for DIAMOND GREEN (NORAD 42785). DIAMOND GREEN can be tracked NOW for your location showing map with azimuth and elevation plus other details from your city location.

Track the satellite on the map from your city or location and see movement details for azimuth, elevation, latitude, longitude, range, height, and movement on the map or in text.







IsCatalogInMostPopularTable: catalog: 42785, numindb: 92
Update: records affected: 1



GetName: 42785 DIAMOND GREEN

Hit Count: updated at: Tue, 25 Sep 2018 14:58:23 GMT